Weather History for New York JFK, NY

Change the Weather History Date:

Sunday, September 14, 2014

  Actual Average Record
Temperature  
Mean Temperature 63 °F 69 °F  
Max Temperature 72 °F 76 °F 89 °F (1972)
Min Temperature 54 °F 62 °F 48 °F (1975)
Degree Days  
Heating Degree Days 2 1  
Month to date heating degree days 2 4  
Since 1 July heating degree days 2 5  
Cooling Degree Days 0 5  
Month to date cooling degree days 130 87  
Year to date cooling degree days 993 948  
Growing Degree Days 13 (Base 50)    
Moisture  
Dew Point 47 °F    
Average Humidity 55    
Maximum Humidity 78    
Minimum Humidity 31    
Precipitation  
Precipitation 0.00 in 0.11 in 1.60 in (1973)
Month to date precipitation 0.33 1.49  
Year to date precipitation 34.44 30.45  
Snow  
Snow 0.00 in 0.00 in - ()
Month to date snowfall 0.0 0.0  
Since 1 July snowfall 0.0 0.0  
Snow Depth 0.00 in    
Sea Level Pressure  
Sea Level Pressure 30.22 in    
Wind  
Wind Speed 9 mph (NNW)    
Max Wind Speed 18 mph    
Max Gust Speed 23 mph    
Visibility 10 miles    
Events      
T = Trace of Precipitation, MM = Missing Value Source: NWS Daily Summary

Daily Weather History Graph

Daily Weather History Graph

Search for Another Location

Airport:

Trip Planner

Search our weather history database for the weather conditions in past years. The results will help you decide how hot, cold, wet, or windy it might be!

Date:

Astronomy

Sep. 14, 2014 Rise Set
Actual Time 6:34 AM EDT 7:05 PM EDT
Civil Twilight 6:07 AM EDT 7:33 PM EDT
Nautical Twilight 5:34 AM EDT 8:05 PM EDT
Astronomical Twilight 5:01 AM EDT 8:38 PM EDT
Moon 10:54 PM EDT (9/14) 12:40 PM EDT (9/14)
Length of Visible Light 13h 25m
Length of Day
12h 31m
Waning Gibbous, 64% of the Moon is Illuminated
Sep 14
Waning Gibbous
Sep 15
Last Quarter
Sep 24
New
Oct 1
First Quarter
Oct 8
Full

Hourly Weather History & Observations

Time (EDT) Temp. Dew Point Humidity Pressure Visibility Wind Dir Wind Speed Gust Speed Precip Events Conditions
12:51 AM 60.1 °F 54.0 °F 80% 30.16 in 10.0 mi NNW 9.2 mph - N/A   Clear
1:51 AM 59.0 °F 48.9 °F 69% 30.17 in 10.0 mi NNW 13.8 mph - N/A   Clear
2:51 AM 57.9 °F 46.9 °F 67% 30.19 in 10.0 mi North 10.4 mph - N/A   Clear
3:51 AM 55.9 °F 46.9 °F 72% 30.19 in 10.0 mi NNE 5.8 mph - N/A   Partly Cloudy
4:51 AM 55.0 °F 46.9 °F 74% 30.22 in 10.0 mi North 9.2 mph - N/A   Partly Cloudy
5:51 AM 55.0 °F 46.9 °F 74% 30.24 in 10.0 mi North 8.1 mph - N/A   Partly Cloudy
6:51 AM 54.0 °F 46.9 °F 77% 30.25 in 10.0 mi North 6.9 mph - N/A   Scattered Clouds
7:51 AM 55.9 °F 46.9 °F 72% 30.27 in 10.0 mi North 13.8 mph - N/A   Scattered Clouds
8:51 AM 57.9 °F 46.0 °F 65% 30.28 in 10.0 mi North 10.4 mph - N/A   Scattered Clouds
9:51 AM 60.1 °F 45.0 °F 57% 30.28 in 10.0 mi North 11.5 mph - N/A   Scattered Clouds
10:51 AM 62.1 °F 46.0 °F 56% 30.28 in 10.0 mi North 10.4 mph - N/A   Scattered Clouds
11:51 AM 64.9 °F 44.1 °F 47% 30.27 in 10.0 mi North 12.7 mph - N/A   Mostly Cloudy
12:51 PM 66.9 °F 42.1 °F 40% 30.25 in 10.0 mi North 12.7 mph 18.4 mph N/A   Mostly Cloudy
1:51 PM 69.1 °F 41.0 °F 36% 30.23 in 10.0 mi NNW 6.9 mph - N/A   Mostly Cloudy
2:51 PM 71.1 °F 41.0 °F 34% 30.22 in 10.0 mi NW 5.8 mph - N/A   Mostly Cloudy
3:51 PM 71.1 °F 39.9 °F 32% 30.20 in 10.0 mi Variable 3.5 mph - N/A   Mostly Cloudy
4:51 PM 70.0 °F 45.0 °F 41% 30.19 in 10.0 mi SSW 8.1 mph - N/A   Mostly Cloudy
5:51 PM 66.9 °F 46.0 °F 47% 30.19 in 10.0 mi SSW 5.8 mph - N/A   Mostly Cloudy
6:51 PM 64.9 °F 46.9 °F 52% 30.19 in 10.0 mi South 5.8 mph - N/A   Mostly Cloudy
7:51 PM 66.0 °F 48.0 °F 52% 30.20 in 10.0 mi SE 4.6 mph - N/A   Mostly Cloudy
8:51 PM 64.0 °F 50.0 °F 60% 30.21 in 10.0 mi SW 5.8 mph - N/A   Mostly Cloudy
9:51 PM 64.0 °F 51.1 °F 63% 30.21 in 10.0 mi SW 8.1 mph - N/A   Scattered Clouds
10:51 PM 63.0 °F 50.0 °F 63% 30.20 in 10.0 mi SW 6.9 mph - N/A   Scattered Clouds
11:51 PM 62.1 °F 52.0 °F 70% 30.20 in 10.0 mi SW 9.2 mph - N/A   Scattered Clouds